When you browse on this site, cookies collect data to enhance your experience and personalize the content and advertising you see.
Visit our Privacy Policy to learn more. By continuing to use the site, you agree to this use of cookies and data.
  • In Hungary
  • List of Countries
  • For 7 days
  • Water Temperature
  • Weather Map
  • News
  • Weather Widgets
  • user-avatar
    Login

    Hourly Weather Swedow

    Today, 20 August, Tuesday

    Time Temperature Precipitation Wind Pressure Humidity
    00:00 +20°C° 0 mm 1 mps 750 mmHg 85%
    01:00 +19°C° 0 mm 1 mps 751 mmHg 87%
    02:00 +19°C° 0 mm 1 mps 751 mmHg 87%
    03:00 +19°C° 0 mm 1 mps 751 mmHg 87%
    04:00 +19°C° 0 mm 1 mps 751 mmHg 87%
    05:00 +20°C° 0 mm 1 mps 752 mmHg 84%
    06:00 +20°C° 0 mm 1 mps 752 mmHg 81%
    07:00 +21°C° 0 mm 1 mps 752 mmHg 77%
    08:00 +23°C° 0 mm 1 mps 752 mmHg 68%
    09:00 +24°C° 0 mm 2 mps 752 mmHg 58%
    10:00 +26°C° 0 mm 2 mps 752 mmHg 48%
    11:00 +26°C° 0 mm 2 mps 752 mmHg 46%
    12:00 +27°C° 0 mm 3 mps 752 mmHg 44%
    13:00 +28°C° 0 mm 3 mps 752 mmHg 42%
    14:00 +27°C° 0 mm 3 mps 751 mmHg 44%
    15:00 +27°C° 0 mm 3 mps 751 mmHg 46%
    16:00 +27°C° 0 mm 3 mps 751 mmHg 48%
    17:00 +25°C° 0.8 mm 4 mps 751 mmHg 58%
    18:00 +22°C° 0.8 mm 4 mps 750 mmHg 67%
    19:00 +20°C° 0.8 mm 4 mps 750 mmHg 76%
    20:00 +20°C° 1.5 mm 4 mps 750 mmHg 80%
    21:00 +19°C° 1.5 mm 5 mps 750 mmHg 85%
    22:00 +17°C° 1.5 mm 5 mps 750 mmHg 89%
    23:00 +17°C° 2.1 mm 6 mps 750 mmHg 90%

    Tomorrow, 21 August, Wednesday

    Time Temperature Precipitation Wind Pressure Humidity
    00:00 +16°C° 2.1 mm 6 mps 750 mmHg 92%
    01:00 +16°C° 2.1 mm 6 mps 750 mmHg 93%
    02:00 +16°C° 0.4 mm 6 mps 750 mmHg 93%
    03:00 +16°C° 0.4 mm 6 mps 750 mmHg 92%
    04:00 +15°C° 0.4 mm 6 mps 750 mmHg 92%
    05:00 +15°C° 0.1 mm 6 mps 751 mmHg 91%
    06:00 +15°C° 0.1 mm 6 mps 752 mmHg 91%
    07:00 +15°C° 0.1 mm 6 mps 752 mmHg 90%
    08:00 +15°C° 0 mm 6 mps 753 mmHg 87%
    09:00 +16°C° 0 mm 5 mps 754 mmHg 84%
    10:00 +17°C° 0 mm 4 mps 754 mmHg 81%
    11:00 +18°C° 0 mm 4 mps 755 mmHg 77%
    12:00 +18°C° 0 mm 4 mps 755 mmHg 73%
    13:00 +19°C° 0 mm 4 mps 755 mmHg 69%
    14:00 +20°C° 0 mm 3 mps 755 mmHg 67%
    15:00 +20°C° 0 mm 3 mps 755 mmHg 65%
    16:00 +21°C° 0 mm 2 mps 755 mmHg 63%
    17:00 +20°C° 0 mm 2 mps 755 mmHg 67%
    18:00 +20°C° 0 mm 1 mps 755 mmHg 71%
    19:00 +19°C° 0 mm 1 mps 755 mmHg 75%
    20:00 +18°C° 0 mm 1 mps 755 mmHg 77%
    21:00 +16°C° 0 mm 1 mps 756 mmHg 79%
    22:00 +16°C° 0 mm 1 mps 756 mmHg 81%
    23:00 +16°C° 0 mm 1 mps 756 mmHg 82%

    Day after tomorrow, 22 August, Thursday

    Time Temperature Precipitation Wind Pressure Humidity
    00:00 +15°C° 0 mm 1 mps 756 mmHg 84%
    01:00 +14°C° 0 mm 0 mps 756 mmHg 85%
    02:00 +15°C° 0 mm 1 mps 756 mmHg 85%
    03:00 +14°C° 0 mm 1 mps 756 mmHg 86%
    04:00 +14°C° 0 mm 1 mps 756 mmHg 87%
    05:00 +15°C° 0 mm 1 mps 756 mmHg 83%
    06:00 +16°C° 0 mm 1 mps 756 mmHg 80%
    07:00 +18°C° 0 mm 1 mps 756 mmHg 77%
    08:00 +18°C° 0 mm 2 mps 756 mmHg 72%
    09:00 +20°C° 0 mm 2 mps 756 mmHg 66%
    10:00 +21°C° 0 mm 2 mps 756 mmHg 61%
    11:00 +23°C° 0 mm 2 mps 756 mmHg 57%
    12:00 +23°C° 0 mm 2 mps 756 mmHg 53%
    13:00 +24°C° 0 mm 2 mps 756 mmHg 50%
    14:00 +24°C° 0 mm 2 mps 755 mmHg 49%
    15:00 +24°C° 0 mm 2 mps 755 mmHg 49%
    16:00 +24°C° 0 mm 2 mps 755 mmHg 48%
    17:00 +23°C° 0 mm 2 mps 755 mmHg 53%
    18:00 +20°C° 0 mm 2 mps 755 mmHg 57%
    19:00 +19°C° 0 mm 2 mps 755 mmHg 62%
    20:00 +18°C° 0 mm 2 mps 755 mmHg 64%
    21:00 +18°C° 0 mm 2 mps 756 mmHg 66%
    22:00 +17°C° 0 mm 2 mps 756 mmHg 68%
    23:00 +17°C° 0 mm 2 mps 756 mmHg 69%

    23 August, Friday

    Time Temperature Precipitation Wind Pressure Humidity
    00:00 +16°C° 0 mm 2 mps 756 mmHg 71%
    01:00 +16°C° 0 mm 1 mps 756 mmHg 72%
    02:00 +15°C° 0 mm 1 mps 756 mmHg 73%
    03:00 +15°C° 0 mm 1 mps 756 mmHg 74%
    04:00 +15°C° 0 mm 1 mps 756 mmHg 75%
    05:00 +16°C° 0 mm 1 mps 756 mmHg 73%
    06:00 +18°C° 0 mm 1 mps 756 mmHg 70%
    07:00 +18°C° 0 mm 2 mps 756 mmHg 68%
    08:00 +20°C° 0 mm 2 mps 757 mmHg 62%
    09:00 +21°C° 0 mm 2 mps 757 mmHg 55%
    10:00 +24°C° 0 mm 2 mps 757 mmHg 49%
    11:00 +24°C° 0 mm 2 mps 757 mmHg 47%
    12:00 +25°C° 0 mm 2 mps 756 mmHg 44%
    13:00 +25°C° 0 mm 2 mps 756 mmHg 42%
    14:00 +25°C° 0 mm 2 mps 756 mmHg 43%
    15:00 +25°C° 0 mm 2 mps 756 mmHg 43%
    16:00 +25°C° 0 mm 2 mps 756 mmHg 43%
    17:00 +24°C° 0 mm 2 mps 756 mmHg 48%
    18:00 +21°C° 0 mm 2 mps 756 mmHg 53%
    19:00 +20°C° 0 mm 2 mps 756 mmHg 58%
    20:00 +19°C° 0 mm 2 mps 756 mmHg 60%
    21:00 +19°C° 0 mm 3 mps 756 mmHg 62%
    22:00 +18°C° 0 mm 3 mps 756 mmHg 65%
    23:00 +17°C° 0 mm 3 mps 756 mmHg 66%

    24 August, Saturday

    Time Temperature Precipitation Wind Pressure Humidity
    00:00 +17°C° 0 mm 3 mps 756 mmHg 67%
    01:00 +17°C° 0 mm 3 mps 756 mmHg 69%
    02:00 +16°C° 0 mm 3 mps 756 mmHg 71%
    03:00 +16°C° 0 mm 3 mps 756 mmHg 73%
    04:00 +14°C° 0 mm 3 mps 756 mmHg 75%
    05:00 +16°C° 0 mm 3 mps 756 mmHg 72%
    06:00 +17°C° 0 mm 4 mps 756 mmHg 69%
    07:00 +18°C° 0 mm 4 mps 756 mmHg 66%
    08:00 +20°C° 0 mm 5 mps 756 mmHg 61%
    09:00 +21°C° 0 mm 5 mps 756 mmHg 56%
    10:00 +23°C° 0 mm 6 mps 756 mmHg 51%
    11:00 +23°C° 0 mm 6 mps 755 mmHg 48%
    12:00 +24°C° 0 mm 6 mps 755 mmHg 46%
    13:00 +26°C° 0 mm 6 mps 755 mmHg 43%
    14:00 +26°C° 0 mm 6 mps 754 mmHg 44%
    15:00 +26°C° 0 mm 6 mps 754 mmHg 44%
    16:00 +26°C° 0 mm 6 mps 753 mmHg 45%
    17:00 +23°C° 0 mm 5 mps 753 mmHg 50%
    18:00 +22°C° 0 mm 4 mps 753 mmHg 56%
    19:00 +20°C° 0 mm 4 mps 753 mmHg 61%
    20:00 +19°C° 0 mm 4 mps 753 mmHg 63%
    21:00 +19°C° 0 mm 4 mps 753 mmHg 65%
    22:00 +18°C° 0 mm 4 mps 753 mmHg 67%
    23:00 +18°C° 0 mm 4 mps 753 mmHg 70%

    25 August, Sunday

    Time Temperature Precipitation Wind Pressure Humidity
    00:00 +17°C° 0 mm 4 mps 752 mmHg 73%
    01:00 +17°C° 0 mm 4 mps 752 mmHg 75%
    02:00 +15°C° 0 mm 4 mps 752 mmHg 77%
    03:00 +15°C° 0 mm 4 mps 752 mmHg 78%
    04:00 +15°C° 0 mm 4 mps 751 mmHg 80%
    05:00 +15°C° 0 mm 4 mps 751 mmHg 77%
    06:00 +17°C° 0 mm 4 mps 751 mmHg 74%
    07:00 +18°C° 0 mm 4 mps 751 mmHg 71%
    08:00 +20°C° 0 mm 4 mps 751 mmHg 66%
    09:00 +22°C° 0 mm 3 mps 751 mmHg 61%
    10:00 +25°C° 0 mm 3 mps 751 mmHg 56%
    11:00 +26°C° 0 mm 3 mps 750 mmHg 53%
    12:00 +28°C° 0 mm 3 mps 750 mmHg 50%
    13:00 +29°C° 0 mm 3 mps 750 mmHg 48%
    14:00 +30°C° 0 mm 3 mps 749 mmHg 47%
    15:00 +30°C° 0 mm 3 mps 749 mmHg 47%
    16:00 +30°C° 0 mm 3 mps 749 mmHg 47%
    17:00 +29°C° 0.2 mm 3 mps 749 mmHg 54%
    18:00 +27°C° 0.2 mm 3 mps 748 mmHg 61%
    19:00 +25°C° 0.2 mm 3 mps 748 mmHg 67%
    20:00 +25°C° 0.9 mm 4 mps 748 mmHg 71%
    21:00 +23°C° 0.9 mm 4 mps 748 mmHg 74%
    22:00 +22°C° 0.9 mm 4 mps 748 mmHg 77%
    23:00 +22°C° 0.4 mm 4 mps 748 mmHg 78%
    Show more